Hourly Weather Lukka

Today, 13 May, Thursday

Time Temperature Precipitation Wind Pressure Humidity
00:00 +14°C° 0 mm 2 mps 751 mmHg 92%
01:00 +13°C° 0 mm 3 mps 750 mmHg 93%
02:00 +12°C° 0 mm 3 mps 750 mmHg 94%
03:00 +12°C° 0 mm 3 mps 750 mmHg 94%
04:00 +12°C° 0 mm 3 mps 750 mmHg 95%
05:00 +13°C° 0 mm 2 mps 750 mmHg 95%
06:00 +13°C° 0 mm 3 mps 750 mmHg 89%
07:00 +13°C° 0 mm 3 mps 750 mmHg 82%
08:00 +14°C° 0 mm 3 mps 750 mmHg 76%
09:00 +16°C° 0 mm 3 mps 750 mmHg 66%
10:00 +17°C° 0 mm 3 mps 750 mmHg 56%
11:00 +19°C° 0 mm 3 mps 750 mmHg 47%
12:00 +19°C° 0 mm 3 mps 749 mmHg 45%
13:00 +20°C° 0 mm 3 mps 749 mmHg 44%
14:00 +20°C° 0 mm 3 mps 749 mmHg 42%
15:00 +20°C° 0 mm 3 mps 748 mmHg 47%
16:00 +19°C° 0 mm 3 mps 748 mmHg 52%
17:00 +18°C° 0 mm 2 mps 747 mmHg 57%
18:00 +17°C° 0 mm 2 mps 747 mmHg 64%
19:00 +15°C° 0 mm 2 mps 747 mmHg 70%
20:00 +14°C° 0 mm 2 mps 747 mmHg 77%
21:00 +13°C° 0 mm 2 mps 747 mmHg 80%
22:00 +12°C° 0 mm 2 mps 747 mmHg 84%
23:00 +10°C° 0 mm 2 mps 747 mmHg 88%

Tomorrow, 14 May, Friday

Time Temperature Precipitation Wind Pressure Humidity
00:00 +9°C° 0 mm 2 mps 747 mmHg 91%
01:00 +9°C° 0 mm 2 mps 747 mmHg 94%
02:00 +8°C° 0 mm 2 mps 747 mmHg 97%
03:00 +8°C° 0 mm 2 mps 748 mmHg 95%
04:00 +9°C° 0 mm 2 mps 748 mmHg 94%
05:00 +9°C° 0 mm 2 mps 748 mmHg 92%
06:00 +12°C° 0 mm 2 mps 748 mmHg 82%
07:00 +13°C° 0 mm 3 mps 748 mmHg 72%
08:00 +14°C° 0 mm 3 mps 748 mmHg 63%
09:00 +16°C° 0 mm 3 mps 748 mmHg 58%
10:00 +17°C° 0 mm 3 mps 748 mmHg 54%
11:00 +19°C° 0 mm 4 mps 748 mmHg 49%
12:00 +19°C° 0 mm 3 mps 748 mmHg 48%
13:00 +20°C° 0 mm 3 mps 748 mmHg 47%
14:00 +20°C° 0 mm 3 mps 748 mmHg 46%
15:00 +20°C° 0 mm 3 mps 747 mmHg 51%
16:00 +19°C° 0 mm 3 mps 747 mmHg 56%
17:00 +19°C° 0 mm 3 mps 746 mmHg 60%
18:00 +17°C° 0 mm 2 mps 746 mmHg 68%
19:00 +16°C° 0 mm 2 mps 746 mmHg 77%
20:00 +14°C° 0 mm 2 mps 745 mmHg 85%
21:00 +14°C° 0.1 mm 2 mps 745 mmHg 88%
22:00 +14°C° 0.1 mm 2 mps 745 mmHg 92%
23:00 +14°C° 0.1 mm 2 mps 745 mmHg 95%

Day after tomorrow, 15 May, Saturday

Time Temperature Precipitation Wind Pressure Humidity
00:00 +13°C° 0 mm 2 mps 744 mmHg 96%
01:00 +13°C° 0 mm 2 mps 744 mmHg 97%
02:00 +13°C° 0 mm 2 mps 743 mmHg 98%
03:00 +14°C° 0.1 mm 2 mps 743 mmHg 98%
04:00 +14°C° 0.1 mm 2 mps 743 mmHg 97%
05:00 +14°C° 0.1 mm 2 mps 743 mmHg 97%
06:00 +14°C° 0.1 mm 3 mps 742 mmHg 92%
07:00 +17°C° 0.1 mm 3 mps 742 mmHg 87%
08:00 +18°C° 0.1 mm 4 mps 742 mmHg 82%
09:00 +20°C° 0 mm 4 mps 742 mmHg 73%
10:00 +21°C° 0 mm 4 mps 742 mmHg 64%
11:00 +23°C° 0 mm 4 mps 742 mmHg 55%
12:00 +23°C° 0 mm 4 mps 741 mmHg 53%
13:00 +23°C° 0 mm 4 mps 741 mmHg 50%
14:00 +25°C° 0 mm 4 mps 741 mmHg 47%
15:00 +23°C° 0.1 mm 4 mps 741 mmHg 54%
16:00 +22°C° 0.1 mm 4 mps 741 mmHg 60%
17:00 +20°C° 0.1 mm 4 mps 741 mmHg 67%
18:00 +19°C° 0.2 mm 3 mps 741 mmHg 75%
19:00 +17°C° 0.2 mm 3 mps 741 mmHg 82%
20:00 +14°C° 0.2 mm 3 mps 741 mmHg 89%
21:00 +14°C° 0 mm 3 mps 741 mmHg 92%
22:00 +13°C° 0 mm 3 mps 741 mmHg 94%
23:00 +12°C° 0 mm 3 mps 741 mmHg 96%

16 May, Sunday

Time Temperature Precipitation Wind Pressure Humidity
00:00 +12°C° 0.2 mm 3 mps 742 mmHg 97%
01:00 +12°C° 0.2 mm 3 mps 742 mmHg 97%
02:00 +13°C° 0.2 mm 2 mps 743 mmHg 97%
03:00 +13°C° 0 mm 2 mps 743 mmHg 97%
04:00 +13°C° 0 mm 2 mps 744 mmHg 96%
05:00 +13°C° 0 mm 2 mps 744 mmHg 96%
06:00 +14°C° 0.1 mm 2 mps 744 mmHg 92%
07:00 +15°C° 0.1 mm 2 mps 745 mmHg 88%
08:00 +16°C° 0.1 mm 2 mps 745 mmHg 84%
09:00 +17°C° 0.2 mm 2 mps 745 mmHg 80%
10:00 +18°C° 0.2 mm 2 mps 745 mmHg 76%
11:00 +19°C° 0.2 mm 2 mps 746 mmHg 72%
12:00 +20°C° 0.7 mm 1 mps 746 mmHg 70%
13:00 +20°C° 0.7 mm 1 mps 746 mmHg 69%
14:00 +21°C° 0.7 mm 1 mps 746 mmHg 68%
15:00 +21°C° 0.4 mm 1 mps 746 mmHg 68%
16:00 +19°C° 0.4 mm 0 mps 746 mmHg 69%
17:00 +19°C° 0.4 mm 0 mps 746 mmHg 70%
18:00 +17°C° 0 mm 0 mps 746 mmHg 76%
19:00 +16°C° 0 mm 1 mps 747 mmHg 82%
20:00 +15°C° 0 mm 1 mps 747 mmHg 88%
21:00 +14°C° 0 mm 1 mps 747 mmHg 89%
22:00 +13°C° 0 mm 1 mps 747 mmHg 90%
23:00 +13°C° 0 mm 1 mps 747 mmHg 92%

17 May, Monday

Time Temperature Precipitation Wind Pressure Humidity
00:00 +13°C° 0 mm 1 mps 748 mmHg 92%
01:00 +12°C° 0 mm 1 mps 748 mmHg 93%
02:00 +12°C° 0 mm 1 mps 748 mmHg 94%
03:00 +12°C° 0 mm 1 mps 748 mmHg 93%
04:00 +13°C° 0 mm 1 mps 748 mmHg 93%
05:00 +13°C° 0 mm 1 mps 748 mmHg 92%
06:00 +15°C° 0 mm 2 mps 748 mmHg 87%
07:00 +17°C° 0 mm 2 mps 748 mmHg 83%
08:00 +18°C° 0 mm 2 mps 748 mmHg 78%
09:00 +19°C° 0 mm 3 mps 748 mmHg 71%
10:00 +21°C° 0 mm 3 mps 748 mmHg 65%
11:00 +22°C° 0 mm 3 mps 748 mmHg 59%
12:00 +22°C° 0 mm 3 mps 748 mmHg 56%
13:00 +24°C° 0 mm 3 mps 747 mmHg 53%
14:00 +24°C° 0 mm 3 mps 747 mmHg 50%
15:00 +24°C° 0 mm 3 mps 747 mmHg 54%
16:00 +24°C° 0 mm 3 mps 746 mmHg 58%
17:00 +22°C° 0 mm 3 mps 746 mmHg 62%
18:00 +21°C° 0.7 mm 4 mps 746 mmHg 72%
19:00 +19°C° 0.7 mm 4 mps 745 mmHg 81%
20:00 +18°C° 0.7 mm 4 mps 745 mmHg 91%
21:00 +18°C° 0.1 mm 4 mps 744 mmHg 92%
22:00 +18°C° 0.1 mm 4 mps 744 mmHg 92%
23:00 +18°C° 0.1 mm 4 mps 744 mmHg 93%

18 May, Tuesday

Time Temperature Precipitation Wind Pressure Humidity
00:00 +17°C° 0 mm 4 mps 743 mmHg 93%
01:00 +17°C° 0 mm 3 mps 743 mmHg 94%
02:00 +17°C° 0 mm 3 mps 743 mmHg 94%
03:00 +17°C° 0 mm 3 mps 743 mmHg 93%
04:00 +16°C° 0 mm 3 mps 743 mmHg 93%
05:00 +16°C° 0 mm 3 mps 743 mmHg 92%
06:00 +18°C° 0 mm 3 mps 742 mmHg 85%
07:00 +20°C° 0 mm 3 mps 742 mmHg 78%
08:00 +21°C° 0 mm 3 mps 742 mmHg 70%
09:00 +22°C° 0.1 mm 3 mps 743 mmHg 69%
10:00 +22°C° 0.1 mm 4 mps 743 mmHg 67%
11:00 +23°C° 0.1 mm 4 mps 743 mmHg 66%
12:00 +22°C° 1.4 mm 3 mps 743 mmHg 71%
13:00 +22°C° 1.4 mm 3 mps 743 mmHg 77%
14:00 +21°C° 1.4 mm 2 mps 743 mmHg 82%
15:00 +20°C° 2.2 mm 2 mps 743 mmHg 85%
16:00 +19°C° 2.2 mm 2 mps 743 mmHg 88%
17:00 +18°C° 2.2 mm 2 mps 742 mmHg 91%
18:00 +18°C° 0.5 mm 2 mps 743 mmHg 93%
19:00 +17°C° 0.5 mm 2 mps 743 mmHg 95%
20:00 +16°C° 0.5 mm 1 mps 743 mmHg 97%
21:00 +16°C° 0 mm 1 mps 743 mmHg 97%
22:00 +15°C° 0 mm 1 mps 744 mmHg 98%
23:00 +15°C° 0 mm 1 mps 744 mmHg 98%
Show more

We Need Your Consent

Meteoprog and our Service Providers may store and access personal data such as cookies, device identifiers or other similar technologies on your device and process such data to personalise content and ads, as well as provide social media features and to analyse the traffic.

  • Store and/or access information on your device

    Cookies, device identifiers or other information can be stored or accessed on your device for the purposes indicated above.

  • Personalised ads and content, ad and content measurement, audience insights, and products development

    Ads and content can be personalised based on a profile. More data can be added to better personalise ads and content. Ad and content performance can be measured. Insights about the audience who saw the ads and content can be derived. Such data can be used to develop or improve user’s experience, systems and software.

By clicking ‘I Agree’ you will allow the use of indicated cookies, device identifiers, web beacons or other similar technologies. Your settings can be changed in the browser on your device.

For certain purposes, legitimate interests may be relied on, rather than consent. You can read more about this in our Privacy and Cookie Policy.